"Timestamp","TZ","WindDir_Mean (deg)","WindSpd_Mean (km/h)","WindSpd_Min (km/h)","WindSpd_Max (km/h)","Temp_Mean (deg)","RH_Mean (%)","MSLP_Mean (hPa)","Rain_Acc (mm)","Rain_Intensity (mm/h)","Hail_Acc (hits/cm2)","Hail_Intensity (hits/cm2hr)","Solar_Mean (W/m2)"
2018/05/20 00:00:00.006,n,209,2.88,2.52,3.24,14.5,80.3,1021.92,0,0,0,0,0.030479
2018/05/20 00:01:00.000,n,224,1.8,1.44,2.52,14.5,80.3,1021.92,0,0,0,0,0.026131
2018/05/20 00:02:00.000,n,274,1.8,1.08,2.16,14.5,80.3,1021.92,0,0,0,0,0.032234
2018/05/20 00:03:00.000,n,160,1.08,0.72,1.8,14.5,80.2,1021.82,0,0,0,0,0.027885
2018/05/20 00:04:00.000,n,149,3.96,2.88,5.04,14.5,80.3,1021.82,0,0,0,0,0.027008
2018/05/20 00:05:00.008,n,140,3.24,2.88,3.6,14.5,80.3,1021.82,0,0,0,0,0.023537
2018/05/20 00:06:00.006,n,164,2.52,1.8,3.24,14.5,80.4,1021.82,0,0,0,0,0.025253
2018/05/20 00:07:00.003,n,132,2.88,2.52,3.24,14.5,80.5,1021.82,0,0,0,0,0.027885
2018/05/20 00:08:00.000,n,152,5.4,3.96,6.12,14.4,80.5,1021.82,0,0,0,0,0.026131
2018/05/20 00:09:00.013,n,153,4.32,3.96,4.68,14.4,80.6,1021.82,0,0,0,0,0.031357
2018/05/20 00:10:00.000,n,149,3.6,3.24,4.32,14.4,80.6,1021.82,0,0,0,0,0.024376
2018/05/20 00:11:00.000,n,278,0.36,0,1.08,14.3,80.7,1021.82,0,0,0,0,0.025253
2018/05/20 00:12:00.005,n,104,2.88,2.52,3.24,14.3,80.8,1021.72,0,0,0,0,0.027885
2018/05/20 00:13:00.001,n,142,1.8,0.72,2.16,14.3,80.8,1021.72,0,0,0,0,0.026131
2018/05/20 00:14:00.000,n,184,1.44,0.72,2.16,14.3,80.9,1021.82,0,0,0,0,0.021782
2018/05/20 00:15:00.000,n,235,2.88,2.52,3.6,14.3,80.8,1021.72,0,0,0,0,0.023537
2018/05/20 00:16:00.009,n,175,1.8,1.44,2.16,14.3,80.9,1021.72,0,0,0,0,0.026131
2018/05/20 00:17:00.006,n,141,1.8,1.08,2.16,14.2,80.8,1021.72,0,0,0,0,0.025253
2018/05/20 00:18:00.004,n,161,2.16,1.44,2.16,14.2,80.7,1021.82,0,0,0,0,0.025253
2018/05/20 00:19:00.001,n,131,3.6,2.16,4.68,14.2,80.7,1021.72,0,0,0,0,0.028725
2018/05/20 00:20:00.000,n,268,1.08,0.36,2.16,14.2,80.7,1021.72,0,0,0,0,0.020027
2018/05/20 00:21:00.000,n,200,2.88,2.52,3.6,14.2,80.7,1021.72,0,0,0,0,0.021782
2018/05/20 00:22:00.000,n,139,1.8,1.08,2.52,14.1,80.8,1021.72,0,0,0,0,0.021782
2018/05/20 00:23:00.000,n,161,1.8,1.44,2.16,14.1,80.7,1021.72,0,0,0,0,0.023537
2018/05/20 00:24:00.006,n,125,1.8,1.44,2.52,14.1,80.7,1021.72,0,0,0,0,0.020027
2018/05/20 00:25:00.003,n,200,2.16,1.44,2.88,14.1,80.7,1021.72,0,0,0,0,0.020027
2018/05/20 00:26:00.000,n,171,2.16,1.44,2.52,14.1,80.7,1021.72,0,0,0,0,0.024376
2018/05/20 00:27:00.015,n,147,5.76,5.04,6.12,14.1,80.7,1021.62,0,0,0,0,0.020905
2018/05/20 00:28:00.000,n,160,2.52,0.72,3.6,14.1,80.8,1021.62,0,0,0,0,0.018272
2018/05/20 00:29:00.000,n,153,3.6,3.24,3.6,14.1,80.8,1021.62,0,0,0,0,0.029602
2018/05/20 00:30:00.005,n,183,2.88,2.88,3.6,14.1,80.9,1021.62,0,0,0,0,0.033989
2018/05/20 00:31:00.003,n,123,3.24,2.52,3.6,14.1,81,1021.72,0,0,0,0,0.027885
2018/05/20 00:32:00.001,n,159,2.52,1.08,3.24,14.1,81,1021.72,0,0,0,0,0.029602
2018/05/20 00:33:00.000,n,151,4.32,3.96,4.68,14.1,80.9,1021.72,0,0,0,0,0.035744
2018/05/20 00:34:00.011,n,143,3.24,2.52,3.96,14.1,81,1021.72,0,0,0,0,0.03746
2018/05/20 00:35:00.008,n,170,4.68,4.32,4.68,14.1,81,1021.72,0,0,0,0,0.027008
2018/05/20 00:36:00.005,n,183,5.04,4.32,5.76,14,80.9,1021.72,0,0,0,0,0.032234
2018/05/20 00:37:00.000,n,164,2.52,1.44,3.96,14,80.8,1021.72,0,0,0,0,0.031395
2018/05/20 00:38:00.000,n,200,1.44,0.72,2.16,14,80.8,1021.72,0,0,0,0,0.027885
2018/05/20 00:39:00.000,n,125,1.44,1.08,2.16,14,80.9,1021.72,0,0,0,0,0.026169
2018/05/20 00:40:00.000,n,160,1.8,1.44,1.8,14,80.8,1021.72,0,0,0,0,0.027008
2018/05/20 00:41:00.006,n,153,2.16,1.8,2.16,14,80.8,1021.72,0,0,0,0,0.027885
2018/05/20 00:42:00.003,n,105,3.6,2.88,4.32,14,80.6,1021.72,0,0,0,0,0.023537
2018/05/20 00:43:00.000,n,187,2.88,2.52,3.24,14,80.4,1021.72,0,0,0,0,0.024414
2018/05/20 00:44:00.013,n,150,2.88,1.44,4.32,14,80.2,1021.72,0,0,0,0,0.025253
2018/05/20 00:46:00.000,n,116,2.88,2.52,2.88,14,80,1021.72,0,0,0,0,0.025253
2018/05/20 00:47:00.000,n,172,1.8,0.72,2.88,14,80.1,1021.72,0,0,0,0,0.027046
2018/05/20 00:48:00.002,n,218,3.96,3.24,4.32,14,79.9,1021.72,0,0,0,0,0.033112
2018/05/20 00:49:00.000,n,147,3.96,3.24,4.32,14,79.8,1021.72,0,0,0,0,0.027046
2018/05/20 00:50:00.000,n,175,5.76,3.6,6.84,14,79.7,1021.72,0,0,0,0,0.027046
2018/05/20 00:51:00.000,n,170,3.6,2.88,3.96,13.9,79.5,1021.72,0,0,0,0,0.023537
2018/05/20 00:52:00.009,n,179,5.04,4.32,5.76,13.9,79.5,1021.72,0,0,0,0,0.026169
2018/05/20 00:53:00.006,n,130,3.24,2.16,5.04,14,79.5,1021.72,0,0,0,0,0.030518
2018/05/20 00:54:00.003,n,151,3.6,2.52,4.32,14,79.4,1021.72,0,0,0,0,0.020905
2018/05/20 00:55:00.001,n,179,3.6,3.24,4.32,14,79.4,1021.72,0,0,0,0,0.02964
2018/05/20 00:56:00.000,n,163,6.48,6.12,7.2,14,79.4,1021.72,0,0,0,0,0.02964
2018/05/20 00:57:00.000,n,160,3.96,3.24,4.32,14,79.5,1021.72,0,0,0,0,0.028763
2018/05/20 00:58:00.000,n,181,6.12,5.4,6.48,14,79.6,1021.72,0,0,0,0,0.027885
2018/05/20 00:59:00.006,n,178,6.48,5.76,7.2,14,79.5,1021.72,0,0,0,0,0.025253
2018/05/20 01:00:00.005,n,137,3.96,3.6,4.32,14,79.5,1021.72,0,0,0,0,0.025253
2018/05/20 01:01:00.001,n,148,5.4,4.68,5.76,14,79.5,1021.72,0,0,0,0,0.024414
2018/05/20 01:02:00.014,n,133,2.88,1.8,3.24,14,79.5,1021.62,0,0,0,0,0.024414
2018/05/20 01:03:00.011,n,147,5.04,4.32,5.04,14,79.6,1021.62,0,0,0,0,0.032234
2018/05/20 01:04:00.000,n,151,3.6,2.88,4.32,14,79.5,1021.62,0,0,0,0,0.026169
2018/05/20 01:05:00.000,n,134,3.96,3.96,4.68,14,79.5,1021.62,0,0,0,0,0.027046
2018/05/20 01:06:00.002,n,167,3.96,3.6,4.32,14,79.5,1021.62,0,0,0,0,0.027885
2018/05/20 01:07:00.000,n,138,5.76,5.04,6.48,14,79.4,1021.62,0,0,0,0,0.025253
2018/05/20 01:08:00.000,n,161,5.04,3.6,5.76,14,79.4,1021.62,0,0,0,0,0.020905
2018/05/20 01:09:00.008,n,150,6.12,5.04,6.84,14,79.4,1021.62,0,0,0,0,0.022697
2018/05/20 01:10:00.005,n,148,3.96,3.24,4.68,14,79.2,1021.62,0,0,0,0,0.02182
2018/05/20 01:11:00.002,n,162,2.88,1.44,3.6,14,79.3,1021.62,0,0,0,0,0.020065
2018/05/20 01:12:00.015,n,192,3.24,2.88,3.6,14,79.3,1021.62,0,0,0,0,0.024414
2018/05/20 01:13:00.000,n,172,4.32,2.88,5.4,14,79.3,1021.62,0,0,0,0,0.020905
2018/05/20 01:14:00.000,n,163,2.52,0.72,3.24,14,79.4,1021.62,0,0,0,0,0.02182
2018/05/20 01:15:00.000,n,175,2.88,2.16,3.96,14,79.4,1021.62,0,0,0,0,0.022697
2018/05/20 01:16:00.004,n,152,6.12,5.76,6.48,14,79.4,1021.62,0,0,0,0,0.020065
2018/05/20 01:17:00.003,n,157,3.96,3.6,4.68,14,79.4,1021.62,0,0,0,0,0.020065
2018/05/20 01:18:00.000,n,190,5.4,4.68,6.48,13.9,79.3,1021.62,0,0,0,0,0.02182
2018/05/20 01:19:00.000,n,178,4.68,4.32,5.4,13.9,79.3,1021.62,0,0,0,0,0.027885
2018/05/20 01:20:00.005,n,154,5.04,4.32,5.76,13.9,79.3,1021.52,0,0,0,0,0.035744
2018/05/20 01:21:00.004,n,196,4.32,2.52,5.76,13.9,79.4,1021.52,0,0,0,0,0.036583
2018/05/20 01:22:00.001,n,162,6.48,5.76,7.2,13.9,79.4,1021.52,0,0,0,0,0.033951
2018/05/20 01:23:00.000,n,162,4.32,3.24,5.4,13.9,79.4,1021.52,0,0,0,0,0.035744
2018/05/20 01:24:00.000,n,160,4.68,3.96,5.04,13.9,79.4,1021.52,0,0,0,0,0.033112
2018/05/20 01:25:00.000,n,165,4.32,2.88,5.4,13.9,79.4,1021.52,0,0,0,0,0.035744
2018/05/20 01:26:00.005,n,180,3.96,3.6,4.68,13.9,79.5,1021.52,0,0,0,0,0.032234
2018/05/20 01:27:00.002,n,157,6.84,6.12,7.56,13.8,79.5,1021.52,0,0,0,0,0.034866
2018/05/20 01:28:00.000,n,169,3.6,2.88,4.32,13.8,79.5,1021.52,0,0,0,0,0.031395
2018/05/20 01:29:00.012,n,155,5.4,4.68,5.76,13.8,79.6,1021.52,0,0,0,0,0.029602
2018/05/20 01:30:00.010,n,149,7.56,6.48,8.28,13.8,79.6,1021.52,0,0,0,0,0.034866
2018/05/20 01:31:00.000,n,152,8.64,7.2,9.36,13.8,79.6,1021.42,0,0,0,0,0.033112
2018/05/20 01:32:00.003,n,162,7.2,6.84,8.64,13.8,79.7,1021.42,0,0,0,0,0.032234
2018/05/20 01:33:00.000,n,164,3.6,2.52,4.32,13.8,79.8,1021.42,0,0,0,0,0.031395
2018/05/20 01:34:00.000,n,136,6.12,5.4,7.2,13.8,79.8,1021.42,0,0,0,0,0.031395
2018/05/20 01:35:00.000,n,167,4.32,3.6,4.68,13.8,79.8,1021.42,0,0,0,0,0.031395
2018/05/20 01:36:00.007,n,134,3.6,2.88,3.96,13.8,80,1021.42,0,0,0,0,0.029602
2018/05/20 01:37:00.004,n,152,5.04,4.68,5.76,13.8,80,1021.42,0,0,0,0,0.032234
2018/05/20 01:38:00.002,n,143,3.6,1.44,4.32,13.8,80,1021.32,0,0,0,0,0.027885
2018/05/20 01:39:00.015,n,167,5.04,4.68,5.4,13.8,80.1,1021.32,0,0,0,0,0.027885
2018/05/20 01:40:00.000,n,134,2.52,1.8,2.88,13.7,79.9,1021.32,0,0,0,0,0.033112
2018/05/20 01:41:00.000,n,167,6.12,5.04,6.48,13.7,79.8,1021.32,0,0,0,0,0.032234
2018/05/20 01:42:00.000,n,169,3.96,3.24,5.04,13.7,79.9,1021.32,0,0,0,0,0.027008
2018/05/20 01:43:00.005,n,166,1.44,0.72,3.24,13.7,79.8,1021.32,0,0,0,0,0.027008
2018/05/20 01:44:00.003,n,152,5.4,4.32,5.76,13.7,79.9,1021.22,0,0,0,0,0.028763
2018/05/20 01:45:00.000,n,233,2.88,2.88,3.6,13.7,79.8,1021.22,0,0,0,0,0.030518
2018/05/20 01:46:00.000,n,193,5.4,4.32,6.12,13.7,79.8,1021.22,0,0,0,0,0.029602
2018/05/20 01:47:00.011,n,171,3.6,2.16,4.68,13.7,79.8,1021.22,0,0,0,0,0.034866
2018/05/20 01:48:00.009,n,161,6.12,5.4,6.84,13.6,79.8,1021.22,0,0,0,0,0.030518
2018/05/20 01:49:00.000,n,159,7.92,7.56,7.92,13.6,79.7,1021.22,0,0,0,0,0.029602
2018/05/20 01:50:00.001,n,145,6.12,5.4,6.48,13.6,79.7,1021.22,0,0,0,0,0.028763
2018/05/20 01:52:00.002,n,154,8.28,4.32,9.72,13.6,79.9,1021.22,0,0,0,0,0.025253
2018/05/20 01:53:00.000,n,136,3.96,2.52,4.68,13.6,79.9,1021.22,0,0,0,0,0.027847
2018/05/20 01:54:00.009,n,175,3.24,2.88,3.6,13.6,79.9,1021.22,0,0,0,0,0.027008
2018/05/20 01:55:00.006,n,164,6.84,6.48,7.92,13.6,79.9,1021.22,0,0,0,0,0.029602
2018/05/20 01:56:00.003,n,159,6.48,5.4,7.2,13.6,79.9,1021.22,0,0,0,0,0.028763
2018/05/20 01:57:00.000,n,161,4.68,3.6,6.48,13.6,80,1021.22,0,0,0,0,0.029602
2018/05/20 01:58:00.000,n,142,3.96,3.6,5.04,13.6,80.1,1021.22,0,0,0,0,0.027847
2018/05/20 01:59:00.000,n,165,5.76,5.4,7.2,13.6,80,1021.12,0,0,0,0,0.027008
2018/05/20 02:00:00.000,n,178,3.96,3.24,5.4,13.6,80,1021.12,0,0,0,0,0.028763
2018/05/20 02:01:00.004,n,183,3.6,2.88,4.32,13.6,80.1,1021.12,0,0,0,0,0.030479
2018/05/20 02:02:00.001,n,155,3.24,1.8,4.68,13.6,80,1021.12,0,0,0,0,0.028763
2018/05/20 02:03:00.000,n,153,6.12,5.4,6.84,13.6,80,1021.12,0,0,0,0,0.027008
2018/05/20 02:04:00.000,n,145,3.96,3.6,4.32,13.6,80,1021.12,0,0,0,0,0.029602
2018/05/20 02:05:00.010,n,160,3.96,2.88,5.4,13.6,79.8,1021.12,0,0,0,0,0.027008
2018/05/20 02:06:00.007,n,204,4.68,4.32,5.76,13.6,79.7,1021.12,0,0,0,0,0.025253
2018/05/20 02:07:00.000,n,163,6.84,6.48,6.84,13.6,79.7,1021.12,0,0,0,0,0.029602
2018/05/20 02:08:00.001,n,189,4.32,3.6,4.68,13.6,79.6,1021.12,0,0,0,0,0.033112
2018/05/20 02:09:00.000,n,151,9,8.64,9.36,13.6,79.6,1021.12,0,0,0,0,0.029602
2018/05/20 02:10:00.000,n,158,5.4,5.04,6.12,13.6,79.5,1021.12,0,0,0,0,0.027008
2018/05/20 02:11:00.000,n,185,5.76,5.4,6.84,13.6,79.5,1021.12,0,0,0,0,0.026131
2018/05/20 02:12:00.006,n,159,6.48,6.12,6.84,13.6,79.5,1021.12,0,0,0,0,0.024414
2018/05/20 02:13:00.004,n,163,9,8.28,9.72,13.6,79.4,1021.12,0,0,0,0,0.026131
2018/05/20 02:14:00.000,n,146,6.12,5.76,6.48,13.5,79.5,1021.12,0,0,0,0,0.026131
2018/05/20 02:15:00.014,n,168,6.84,6.48,7.2,13.5,79.5,1021.22,0,0,0,0,0.027008
2018/05/20 02:16:00.000,n,158,2.88,1.8,3.6,13.5,79.3,1021.12,0,0,0,0,0.020905
2018/05/20 02:17:00.000,n,164,4.32,1.8,6.48,13.5,79.2,1021.12,0,0,0,0,0.022621
2018/05/20 02:18:00.000,n,138,3.6,2.16,3.96,13.5,79.3,1021.12,0,0,0,0,0.021782
2018/05/20 02:19:00.004,n,161,7.56,4.68,8.64,13.5,79.2,1021.12,0,0,0,0,0.020905
2018/05/20 02:20:00.003,n,183,14.04,12.96,15.48,13.5,78.9,1021.12,0,0,0,0,0.024414
2018/05/20 02:21:00.001,n,181,6.48,4.68,7.56,13.5,78.8,1021.12,0,0,0,0,0.024414
2018/05/20 02:22:00.000,n,198,6.12,5.4,7.56,13.5,78.6,1021.12,0,0,0,0,0.021782
2018/05/20 02:23:00.012,n,173,7.56,7.2,8.28,13.5,78.4,1021.12,0,0,0,0,0.01915
2018/05/20 02:24:00.009,n,189,3.6,2.16,5.04,13.5,78.4,1021.12,0,0,0,0,0.025253
2018/05/20 02:25:00.000,n,162,6.12,5.04,6.84,13.5,78.3,1021.12,0,0,0,0,0.021782
2018/05/20 02:26:00.002,n,151,5.76,3.6,8.64,13.5,78.2,1021.12,0,0,0,0,0.022621
2018/05/20 02:27:00.000,n,218,3.6,2.16,4.68,13.5,78.1,1021.12,0,0,0,0,0.024414
2018/05/20 02:28:00.000,n,190,2.88,2.52,3.6,13.5,78,1021.12,0,0,0,0,0.022621
2018/05/20 02:29:00.000,n,167,6.48,5.4,7.2,13.5,77.9,1021.12,0,0,0,0,0.020027
2018/05/20 02:30:00.008,n,169,7.2,6.84,7.92,13.5,77.9,1021.12,0,0,0,0,0.023499
2018/05/20 02:31:00.005,n,159,6.12,3.96,7.2,13.5,77.9,1021.12,0,0,0,0,0.027008
2018/05/20 02:32:00.003,n,187,3.6,2.52,4.68,13.5,77.8,1021.12,0,0,0,0,0.020027
2018/05/20 02:33:00.000,n,199,3.24,1.8,4.32,13.5,77.7,1021.12,0,0,0,0,0.023499
2018/05/20 02:34:00.000,n,152,3.6,2.16,4.68,13.5,77.6,1021.12,0,0,0,0,0.022621
2018/05/20 02:35:00.000,n,193,3.96,2.52,6.12,13.5,77.6,1021.12,0,0,0,0,0.020027
2018/05/20 02:36:00.000,n,156,2.16,0.72,2.88,13.5,77.5,1021.12,0,0,0,0,0.018272
2018/05/20 02:37:00.006,n,154,4.68,3.96,4.68,13.5,77.6,1021.12,0,0,0,0,0.025253
2018/05/20 02:38:00.003,n,166,4.68,3.24,6.84,13.5,77.7,1021.12,0,0,0,0,0.022621
2018/05/20 02:39:00.000,n,174,1.44,0.72,2.16,13.5,77.6,1021.12,0,0,0,0,0.017433
2018/05/20 02:40:00.000,n,183,1.44,0.72,2.16,13.5,77.5,1021.12,0,0,0,0,0.029602
2018/05/20 02:41:00.006,n,291,0.72,0.36,0.72,13.5,77.5,1021.12,0,0,0,0,0.033073
2018/05/20 02:42:00.004,n,125,2.16,1.8,2.88,13.5,77.5,1021.02,0,0,0,0,0.032234
2018/05/20 02:43:00.001,n,159,1.08,1.08,1.44,13.5,77.5,1021.02,0,0,0,0,0.033073
2018/05/20 02:44:00.000,n,240,1.08,0.72,1.44,13.5,77.5,1021.02,0,0,0,0,0.033951
2018/05/20 02:45:00.000,n,145,2.88,2.88,3.24,13.5,77.5,1021.02,0,0,0,0,0.033073
2018/05/20 02:46:00.000,n,150,4.32,3.6,4.68,13.5,77.5,1021.02,0,0,0,0,0.032234
2018/05/20 02:47:00.007,n,156,3.6,3.24,3.96,13.5,77.4,1021.02,0,0,0,0,0.030479
2018/05/20 02:48:00.004,n,189,3.24,1.8,4.32,13.5,77.4,1021.02,0,0,0,0,0.033073
2018/05/20 02:49:00.001,n,18,0.72,0.36,1.44,13.5,77.4,1021.02,0,0,0,0,0.035667
2018/05/20 02:50:00.000,n,87,2.16,1.08,6.12,13.4,77.3,1021.02,0,0,0,0,0.029602
2018/05/20 02:51:00.012,n,133,3.96,3.6,4.68,13.4,77.3,1021.02,0,0,0,0,0.028725
2018/05/20 02:52:00.000,n,125,2.52,1.08,3.96,13.4,77.3,1021.02,0,0,0,0,0.029602
2018/05/20 02:53:00.000,n,190,2.88,2.88,3.6,13.4,77.3,1021.02,0,0,0,0,0.036583
2018/05/20 02:54:00.002,n,231,3.6,3.24,3.96,13.3,77.3,1021.02,0,0,0,0,0.034828
2018/05/20 02:55:00.000,n,215,1.8,1.08,1.8,13.3,77.4,1021.02,0,0,0,0,0.031319
2018/05/20 02:56:00.000,n,228,1.08,0.72,1.08,13.3,77.4,1021.02,0,0,0,0,0.030479
2018/05/20 02:57:00.010,n,157,4.68,3.96,5.4,13.3,77.4,1020.92,0,0,0,0,0.027885
2018/05/20 02:58:00.007,n,171,3.96,3.24,4.68,13.3,77.5,1021.02,0,0,0,0,0.029602
2018/05/20 02:59:00.004,n,148,4.32,3.24,5.76,13.3,77.5,1021.02,0,0,0,0,0.028725
2018/05/20 03:00:00.002,n,204,2.16,1.8,2.88,13.3,77.4,1021.02,0,0,0,0,0.02697
2018/05/20 03:01:00.000,n,154,3.6,3.24,4.32,13.3,77.6,1021.02,0,0,0,0,0.031319
2018/05/20 03:02:00.000,n,162,4.32,3.96,5.04,13.3,77.6,1021.02,0,0,0,0,0.027885
2018/05/20 03:03:00.000,n,111,2.52,1.8,2.88,13.2,77.6,1021.02,0,0,0,0,0.033951
2018/05/20 03:04:00.005,n,170,1.8,1.44,2.16,13.2,77.9,1021.02,0,0,0,0,0.028725
2018/05/20 03:05:00.003,n,229,2.88,2.52,3.24,13.2,77.8,1021.02,0,0,0,0,0.032234
2018/05/20 03:06:00.000,n,175,2.16,0,3.24,13.2,77.8,1021.02,0,0,0,0,0.033073
2018/05/20 03:07:00.000,n,166,3.24,2.88,3.6,13.2,77.8,1021.02,0,0,0,0,0.026093
2018/05/20 03:08:00.011,n,144,2.88,2.52,2.88,13.2,77.8,1021.02,0,0,0,0,0.033951
2018/05/20 03:09:00.009,n,180,1.08,0.72,1.08,13.2,77.9,1021.02,0,0,0,0,0.033073
2018/05/20 03:10:00.000,n,193,1.08,0.72,1.44,13.2,77.9,1021.02,0,0,0,0,0.033073
2018/05/20 03:11:00.001,n,86,2.16,1.08,2.88,13.1,77.9,1021.02,0,0,0,0,0.030479
2018/05/20 03:12:00.000,n,154,2.16,1.8,2.52,13.1,78.1,1021.02,0,0,0,0,0.026093
2018/05/20 03:13:00.000,n,118,0.72,0.36,1.08,13.1,78.1,1021.02,0,0,0,0,0.033951
2018/05/20 03:15:00.010,n,143,2.16,1.44,2.52,13.1,78.2,1021.02,0,0,0,0,0.028725
2018/05/20 03:16:00.004,n,116,2.52,2.16,2.52,13.1,78.2,1021.02,0,0,0,0,0.022621
2018/05/20 03:17:00.001,n,136,4.68,3.96,5.04,13.1,78.2,1021.02,0,0,0,0,0.025253
2018/05/20 03:18:00.014,n,171,3.96,1.08,4.68,13.1,78.2,1021.02,0,0,0,0,0.025253
2018/05/20 03:19:00.000,n,145,3.96,3.6,4.32,13,78.3,1021.02,0,0,0,0,0.024376
2018/05/20 03:20:00.000,n,167,3.6,3.24,4.68,13,78.4,1021.02,0,0,0,0,0.026093
2018/05/20 03:21:00.000,n,164,1.44,1.44,1.8,13,78.4,1021.02,0,0,0,0,0.025253
2018/05/20 03:22:00.005,n,190,2.52,2.52,3.24,13,78.5,1021.02,0,0,0,0,0.024376
2018/05/20 03:23:00.002,n,175,4.68,3.24,6.84,13,78.8,1021.02,0,0,0,0,0.030441
2018/05/20 03:24:00.000,n,155,4.68,3.96,5.4,13,78.6,1021.02,0,0,0,0,0.030441
2018/05/20 03:25:00.012,n,159,7.2,6.12,8.64,12.9,78.6,1021.02,0,0,0,0,0.032234
2018/05/20 03:26:00.010,n,149,3.96,2.16,5.04,12.9,78.7,1021.02,0,0,0,0,0.030441
2018/05/20 03:27:00.006,n,171,5.4,4.68,6.12,12.9,78.7,1021.02,0,0,0,0,0.028725
2018/05/20 03:28:00.000,n,150,4.68,4.68,5.04,12.9,78.7,1021.02,0,0,0,0,0.025253
2018/05/20 03:29:00.000,n,127,3.6,1.8,4.68,12.9,78.7,1021.02,0,0,0,0,0.029602
2018/05/20 03:30:00.000,n,126,1.44,1.08,3.24,12.9,78.8,1021.02,0,0,0,0,0.024376
2018/05/20 03:31:00.000,n,179,4.68,3.96,5.4,12.9,78.8,1021.02,0,0,0,0,0.02697
2018/05/20 03:32:00.008,n,160,4.32,3.24,5.04,12.9,78.8,1021.02,0,0,0,0,0.026093
2018/05/20 03:33:00.006,n,162,5.04,3.96,6.12,12.9,78.8,1021.02,0,0,0,0,0.024376
2018/05/20 03:34:00.003,n,148,4.68,4.32,5.76,12.9,78.8,1021.02,0,0,0,0,0.02346
2018/05/20 03:35:00.000,n,47,0.72,0.36,1.08,12.8,78.8,1021.02,0,0,0,0,0.025253
2018/05/20 03:36:00.013,n,211,2.16,1.8,2.52,12.8,78.8,1021.02,0,0,0,0,0.02697
2018/05/20 03:37:00.000,n,115,2.52,2.16,2.52,12.8,78.8,1021.02,0,0,0,0,0.022621
2018/05/20 03:38:00.000,n,160,2.88,2.16,3.6,12.8,78.8,1021.02,0,0,0,0,0.025253
2018/05/20 03:39:00.005,n,170,6.48,5.04,7.2,12.8,78.9,1021.02,0,0,0,0,0.025253
2018/05/20 03:40:00.003,n,205,2.52,1.8,3.24,12.8,78.8,1021.02,0,0,0,0,0.024376
2018/05/20 03:41:00.001,n,189,1.44,1.08,1.8,12.8,78.9,1021.02,0,0,0,0,0.022621
2018/05/20 03:42:00.000,n,108,1.08,0.72,1.44,12.8,78.7,1021.02,0,0,0,0,0.024376
2018/05/20 03:43:00.011,n,139,4.68,3.24,5.76,12.8,78.8,1021.02,0,0,0,0,0.02346
2018/05/20 03:44:00.008,n,147,3.24,2.52,3.96,12.8,78.8,1021.02,0,0,0,0,0.024376
2018/05/20 03:45:00.006,n,148,2.52,2.16,2.88,12.8,78.9,1021.02,0,0,0,0,0.022621
2018/05/20 03:46:00.000,n,127,2.88,2.16,5.04,12.8,79,1021.02,0,0,0,0,0.02346
2018/05/20 03:47:00.000,n,244,1.44,1.08,2.16,12.7,79,1021.02,0,0,0,0,0.021744
2018/05/20 03:48:00.000,n,248,1.44,0.72,2.16,12.7,79.2,1021.02,0,0,0,0,0.020027
2018/05/20 03:49:00.000,n,130,2.16,1.8,2.52,12.8,79.2,1021.02,0,0,0,0,0.020905
2018/05/20 03:50:00.008,n,124,4.68,3.96,5.4,12.8,79.1,1021.02,0,0,0,0,0.028763
2018/05/20 03:51:00.001,n,128,2.88,0.72,3.96,12.8,79.1,1021.02,0,0,0,0,0.029602
2018/05/20 03:52:00.000,n,187,2.88,2.52,3.24,12.7,79.2,1021.02,0,0,0,0,0.031395
2018/05/20 03:53:00.011,n,238,2.52,1.8,2.88,12.7,79.2,1021.02,0,0,0,0,0.030479
2018/05/20 03:54:00.008,n,155,1.44,1.08,1.8,12.7,79.2,1021.02,0,0,0,0,0.029602
2018/05/20 03:55:00.000,n,30,0.72,0.72,0.72,12.7,79.1,1021.02,0,0,0,0,0.028763
2018/05/20 03:56:00.002,n,146,1.44,1.08,2.16,12.7,79.2,1021.02,0,0,0,0,0.030479
2018/05/20 03:57:00.000,n,129,1.08,1.08,1.44,12.7,79.2,1021.02,0,0,0,0,0.031395
2018/05/20 03:58:00.000,n,111,2.52,2.16,2.88,12.7,79.4,1021.02,0,0,0,0,0.028763
2018/05/20 03:59:00.000,n,46,0.36,0,0.72,12.7,79.4,1021.02,0,0,0,0,0.030479
2018/05/20 04:00:00.007,n,199,3.24,3.24,3.6,12.7,79.4,1021.02,0,0,0,0,0.027885
2018/05/20 04:01:00.005,n,135,1.08,0.36,2.52,12.7,79.4,1021.02,0,0,0,0,0.030479
2018/05/20 04:02:00.002,n,109,1.08,0.36,1.8,12.7,79.6,1021.02,0,0,0,0,0.027046
2018/05/20 04:03:00.015,n,197,2.16,1.8,2.52,12.7,79.5,1021.02,0,0,0,0,0.027046
2018/05/20 04:04:00.000,n,26,0.72,0.36,1.08,12.7,79.7,1021.02,0,0,0,0,0.028763
2018/05/20 04:05:00.000,n,157,1.08,0.72,1.44,12.7,79.6,1021.02,0,0,0,0,0.033112
2018/05/20 04:06:00.000,n,137,1.44,0.72,2.16,12.7,79.8,1021.02,0,0,0,0,0.023537
2018/05/20 04:07:00.004,n,141,1.08,0.36,1.8,12.7,79.8,1021.02,0,0,0,0,0.026131
2018/05/20 04:08:00.001,n,203,1.08,0.72,1.44,12.7,79.7,1021.02,0,0,0,0,0.027885
2018/05/20 04:09:00.000,n,142,2.52,1.8,3.24,12.7,79.7,1021.02,0,0,0,0,0.033112
2018/05/20 04:10:00.010,n,153,2.52,2.52,2.52,12.7,79.8,1021.02,0,0,0,0,0.021782
2018/05/20 04:11:00.008,n,139,2.16,1.8,2.88,12.6,79.7,1021.02,0,0,0,0,0.023537
2018/05/20 04:12:00.006,n,215,2.88,2.16,3.24,12.6,79.7,1021.02,0,0,0,0,0.028763
2018/05/20 04:13:00.000,n,164,4.32,2.52,5.04,12.6,79.9,1021.02,0,0,0,0,0.023537
2018/05/20 04:14:00.000,n,170,2.16,1.8,2.52,12.6,79.8,1021.02,0,0,0,0,0.032234
2018/05/20 04:15:00.000,n,179,4.68,3.6,5.4,12.6,79.8,1021.02,0,0,0,0,0.032234
2018/05/20 04:16:00.000,n,165,4.32,3.6,5.4,12.6,79.7,1021.02,0,0,0,0,0.027885
2018/05/20 04:17:00.008,n,189,6.48,6.12,7.56,12.6,79.7,1021.02,0,0,0,0,0.024414
2018/05/20 04:18:00.006,n,199,3.6,2.88,4.32,12.6,79.8,1021.02,0,0,0,0,0.025253
2018/05/20 04:19:00.003,n,164,8.64,6.84,10.08,12.6,79.8,1021.02,0,0,0,0,0.023537
2018/05/20 04:20:00.000,n,200,6.84,6.84,7.2,12.5,79.7,1021.02,0,0,0,0,0.027046
2018/05/20 04:21:00.014,n,167,2.16,0.72,3.24,12.5,79.7,1021.02,0,0,0,0,0.025253
2018/05/20 04:22:00.000,n,190,6.48,5.4,7.56,12.5,79.7,1021.02,0,0,0,0,0.018272
2018/05/20 04:23:00.000,n,203,4.32,3.6,5.76,12.5,79.7,1021.02,0,0,0,0,0.027046
2018/05/20 04:24:00.000,n,237,2.88,1.8,3.24,12.5,79.7,1021.02,0,0,0,0,0.027046
2018/05/20 04:25:00.002,n,210,3.6,2.52,4.32,12.5,79.8,1021.02,0,0,0,0,0.023537
2018/05/20 04:26:00.001,n,184,5.76,5.04,6.84,12.5,79.7,1021.02,0,0,0,0,0.023537
2018/05/20 04:27:00.000,n,163,2.52,1.44,3.96,12.5,79.7,1020.92,0,0,0,0,0.024414
2018/05/20 04:28:00.010,n,173,5.04,1.8,6.48,12.5,79.7,1020.92,0,0,0,0,0.025253
2018/05/20 04:29:00.008,n,179,1.44,0.72,2.88,12.5,79.7,1020.92,0,0,0,0,0.024414
2018/05/20 04:30:00.005,n,135,5.76,4.32,6.84,12.5,79.8,1020.92,0,0,0,0,0.020905
2018/05/20 04:31:00.002,n,190,2.52,1.8,3.24,12.5,79.8,1020.92,0,0,0,0,0.024414
2018/05/20 04:32:00.000,n,138,2.16,1.44,3.24,12.5,79.7,1020.92,0,0,0,0,0.027885
2018/05/20 04:33:00.000,n,174,0.72,0.36,1.44,12.5,79.7,1020.92,0,0,0,0,0.022659
2018/05/20 04:34:00.000,n,231,4.32,3.24,5.04,12.5,79.7,1020.92,0,0,0,0,0.021782
2018/05/20 04:35:00.006,n,169,6.12,5.4,6.84,12.5,79.7,1021.02,0,0,0,0,0.024414
2018/05/20 04:36:00.004,n,140,3.6,2.88,4.32,12.4,79.7,1021.02,0,0,0,0,0.022659
2018/05/20 04:37:00.000,n,205,1.8,1.08,2.88,12.4,79.7,1021.02,0,0,0,0,0.020065
2018/05/20 04:38:00.013,n,151,3.24,2.88,3.6,12.4,80,1021.02,0,0,0,0,0.03746
2018/05/20 04:39:00.007,n,173,2.88,1.8,3.6,12.4,79.9,1021.02,0,0,0,0,0.033112
2018/05/20 04:40:00.000,n,196,2.52,1.8,2.88,12.4,79.8,1021.02,0,0,0,0,0.030479
2018/05/20 04:41:00.001,n,102,1.08,0.36,1.8,12.4,79.8,1021.02,0,0,0,0,0.040054
2018/05/20 04:42:00.000,n,48,0.72,0.36,2.16,12.4,79.9,1021.02,0,0,0,0,0.034828
2018/05/20 04:43:00.000,n,155,2.88,2.52,3.96,12.4,79.9,1021.02,0,0,0,0,0.033112
2018/05/20 04:44:00.000,n,31,1.44,1.08,2.16,12.4,80.1,1021.02,0,0,0,0,0.033951
2018/05/20 04:45:00.007,n,187,0.72,0.36,1.44,12.4,80,1021.02,0,0,0,0,0.033112
2018/05/20 04:46:00.004,n,266,3.6,2.52,4.68,12.4,80.1,1021.02,0,0,0,0,0.035706
2018/05/20 04:47:00.002,n,290,2.16,1.08,2.88,12.4,80,1021.02,0,0,0,0,0.033112
2018/05/20 04:48:00.015,n,270,4.32,3.6,4.68,12.4,79.9,1021.02,0,0,0,0,0.033112
2018/05/20 04:49:00.000,n,152,0.36,0.36,1.08,12.4,80.2,1021.02,0,0,0,0,0.031319
2018/05/20 04:50:00.000,n,178,0.36,0,0.72,12.4,80.1,1021.02,0,0,0,0,0.036583
2018/05/20 04:51:00.000,n,218,2.88,1.8,2.88,12.4,80.1,1021.02,0,0,0,0,0.032234
2018/05/20 04:52:00.003,n,217,2.52,1.44,3.6,12.4,79.8,1021.12,0,0,0,0,0.026131
2018/05/20 04:53:00.001,n,163,3.24,2.52,3.96,12.4,79.8,1021.12,0,0,0,0,0.028725
2018/05/20 04:54:00.000,n,133,2.16,1.8,2.52,12.3,79.8,1021.12,0,0,0,0,0.029602
2018/05/20 04:55:00.010,n,276,1.08,0.36,1.8,12.3,79.9,1021.12,0,0,0,0,0.030479
2018/05/20 04:56:00.008,n,181,1.08,0.72,1.44,12.3,79.9,1021.12,0,0,0,0,0.028725
2018/05/20 04:57:00.005,n,107,1.8,1.08,2.52,12.3,79.9,1021.22,0,0,0,0,0.030479
2018/05/20 04:58:00.000,n,19,0.72,0.36,1.8,12.3,80.4,1021.22,0,0,0,0,0.029602
2018/05/20 04:59:00.000,n,198,1.08,0.72,1.8,12.3,80,1021.22,0,0,0,0,0.031319